Regional Weather Roundup
Issued by NWS Wakefield, VA

Home | Current Version | Previous Version | Graphics & Text | Print | Product List | Glossary On
Versions: 1 2 3 4 5 6 7 8 9 10 11 12 13 14 15 16 17 18 19 20 21 22 23 24 25 26 27 28
000
ASUS41 KAKQ 180215
RWRAKQ

REGIONAL WEATHER ROUNDUP
NATIONAL WEATHER SERVICE WAKEFIELD VA
900 PM EST FRI NOV 17 2017

Note: "fair" indicates few or no clouds below 12,000 feet with no
significant weather and/or obstructions to visibility. * = Denotes
station may not report precipitation (e.g., rain,snow,etc.),
thunder or fog.

VAZ042-051-052>054-056-180300-
NORTHERN VIRGINIA

CITY           SKY/WX    TMP DP  RH WIND       PRES   REMARKS
WASH NATIONAL  CLOUDY    44  35  70 S3        30.13F
DULLES         CLOUDY    35  30  82 CALM      30.11F
FORT BELVOIR   CLOUDY    34  29  82 CALM      30.12F
QUANTICO       CLOUDY    38  34  85 NW7       30.14F
FREDERICKSBRG* CLEAR     34  31  89 CALM      30.12F
STAFFORD*      CLEAR     31  31 100 CALM      30.17S
WARRENTON      NOT AVBL
CULPEPER*      CLOUDY    32  28  84 CALM      30.13S
MANASSAS*      CLOUDY    30  26  85 CALM      30.13S
LEESBURG*      CLOUDY    36  32  87 CALM      30.11F
WINCHESTER     CLOUDY    32  28  86 CALM      30.08S
FRONT ROYAL*   CLOUDY    32  28  86 S3        30.08S
LURAY*         CLOUDY    34  30  86 CALM      30.09S
$$

VAZ048-049-060>072-079>083-180300-
CENTRAL AND SOUTH CENTRAL VIRGINIA

CITY           SKY/WX    TMP DP  RH WIND       PRES   REMARKS
RICHMOND       CLEAR     35  30  82 CALM      30.14S
CHESTERFIELD*  NOT AVBL
PETERSBURG*    CLEAR    N/A N/A N/A CALM      30.15S
HANOVER        CLEAR     34  31  88 CALM      30.15F
TAPPAHANNOCK*    N/A    N/A N/A N/A MISG        N/A
QUINTON*       FAIR      34  34  99 CALM      30.14S
CHARLOTTSVILLE CLOUDY    43  26  51 W3        30.12R
GORDONSVILLE*  CLEAR     32  30  90 CALM      30.12S
ORANGE*        CLOUDY    32  28  86 CALM      30.13R
LOUISA*          N/A     32  28  83 S5          N/A
BUMPASS*       FAIR      35  31  86 CALM      30.13R
FARMVILLE*     CLOUDY    34  33  97 CALM      30.13R
CREWE*         FAIR      32  32 100 CALM      30.14S
FORT PICKETT*  NOT AVBL
CHASE CITY*    FAIR      35  31  84 CALM      30.15R
CLARKSVILLE*   FAIR      36  34  93 CALM      30.15S
SOUTH HILL*    CLEAR     32  32  99 CALM      30.20F
LAWRENCEVILLE* FAIR      35  34  95 CALM      30.15S
EMPORIA*       CLEAR     32  32 100 CALM      30.17S
$$

VAZ088>098-180300-
SOUTHEAST VIRGINIA

CITY           SKY/WX    TMP DP  RH WIND       PRES   REMARKS
NORFOLK        CLEAR     37  34  89 CALM      30.15S
VIRGINIA BEACH CLEAR     36  32  85 SW3       30.15R
NORFOLK NAVAL  CLEAR     38  34  85 CALM      30.16F
WEST POINT*    CLEAR     32  31  96 CALM      30.16S
SALUDA*        FAIR      34  33  98 CALM      30.14S
NEWPORT NEWS   CLEAR     33  31  92 CALM      30.15F
LANGLEY AFB    CLEAR     37  35  90 SW3       30.15S
FORT EUSTIS    CLEAR     38  34  86 NE3       30.12F
WILLIAMSBURG*  CLEAR     37  34  87 CALM      30.15F
HR EXEC AP*    NOT AVBL
FRANKLIN*      CLEAR     32  31  94 CALM      30.17R
US460-WAKEFLD  CLEAR     33  33 100 CALM      30.15F
$$

VAZ020-022-025-037-045-180300-
WEST CENTRAL AND SOUTHWEST VIRGINIA

CITY           SKY/WX    TMP DP  RH WIND       PRES   REMARKS
STAUNTON*      CLOUDY    30  26  84 CALM      30.11S
WAYNESBORO*    CLOUDY    40  24  53 S6        30.10R
HOT SPRINGS VA CLOUDY    40  12  31 S13       30.08S
LYNCHBURG      CLOUDY    34  27  75 CALM      30.13R
DANVILLE       CLEAR     34  31  88 CALM      30.15R
SOUTH BOSTON*  FAIR      34  29  82 CALM      30.15S
MARTINSVILLE   CLEAR     32  28  84 CALM      30.16R
ROANOKE        CLOUDY    40  27  59 CALM      30.14S
BLACKSBURG     CLOUDY    36  28  71 CALM      30.14S
DUBLIN*        CLOUDY    41  28  59 CALM      30.12S
MARION*        CLEAR     44  21  41 NE5       30.10F
HILLSVILLE*    CLEAR     43  23  45 S7        30.09F
RICHLANDS*     FAIR      50  -2  12 S7        30.04F
WISE*          PTCLDY    52  27  37 S12G17    30.04S
ABINGDON*      CLEAR     45  30  56 CALM      30.05F
$$

MDZ021>025-VAZ099-100-180300-
SOUTHERN MARYLAND AND THE DELMARVA PENINSULA

CITY           SKY/WX    TMP DP  RH WIND       PRES   REMARKS
PATUXENT RIVER PTCLDY    34  31  88 SE3       30.13F
BAY BRIDGE APT CLEAR     37  32  81 CALM      30.13F
LEONARDTOWN    CLEAR     34  32  93 CALM      30.15F
DOVER          CLEAR     35  26  70 CALM      30.13S
GEORGETOWN     CLEAR     36  30  79 CALM      30.14F
EASTON         CLEAR     37  32  81 CALM      30.16F
CAMBRIDGE      CLEAR     34  30  86 CALM      30.13F FOG
SALISBURY      CLEAR     32  30  92 CALM      30.13F
OCEAN CITY     CLEAR     33  31  92 CALM      30.14F
WALLOPS ISLAND CLEAR     36  33  89 CALM      30.14F
ACCOMACK*      CLEAR     35  33  95 CALM      30.15R
$$

NCZ012>017-030>032-180300-
NORTH CENTRAL AND EASTERN NORTH CAROLINA

CITY           SKY/WX    TMP DP  RH WIND       PRES   REMARKS
ROANOKE RAPIDS FAIR      34  34 100 CALM      30.16S
RALEIGH        CLEAR     39  34  82 CALM      30.16R
ELIZABETH CITY CLEAR     38  37  97 SW3       30.16S
AHOSKIE*       CLEAR     33  33 100 CALM      30.17R
EDENTON*       CLEAR     38  36  92 CALM      30.17S
CURRITUCK*     CLEAR     37  36  93 CALM      30.17R
KILL DEVIL HLS CLEAR     43  34  71 CALM      30.14F
MANTEO         CLEAR     39  37  94 CALM      30.16F
CAPE HATTERAS  CLEAR     40  38  93 E3        30.16F
TARBORO*       NOT AVBL
GOLDSBORO      CLEAR     39  35  84 CALM      30.14F
WASHINGTON     CLEAR     38  37  96 CALM      30.17S
GREENVILLE     CLEAR     36  36 100 CALM      30.17F FOG
NEW BERN       CLEAR     38  37  97 CALM      30.17F
WILMINGTON     CLEAR     40  38  93 NE3       30.16S
$$

VAZ048-180300-
ELSEWHERE

CITY           SKY/WX    TMP DP  RH WIND       PRES   REMARKS
HARRISBURG PA  CLOUDY    35  28  75 NE3       30.09F
BALTIMORE      CLOUDY    35  29  78 CALM      30.12F
ANNAPOLIS      PTCLDY    41  37  86 CALM      30.13F
ANDREWS AFB    CLOUDY    35  27  72 S3        30.11F
PHILADELPHIA   MOCLDY    44  24  45 W8        30.12S
HENDERSON NC   CLEAR     39  29  67 CALM      30.15S
GREENSBORO     CLEAR     43  32  65 S3        30.13R
ROCKY MOUNT    CLEAR     36  35  96 CALM      30.16F
$$

VAZ100-180300-
MARINE

STATION/POSITION TIME  TEMP    WIND        PRES    WAVE   SWELL
                       AIR SEA DIR/SP/G            HT/PER HT/PER
                 (UTC) (F)     (DEG/KT/KT) (MB)    (FT/S) (FT/S)
15NM E FENWICK I 0050   50 59  300/ 12/ 16 1020.7    3/ 4   2/12
THOMAS POINT MD  0200   48 53  230/  2/  2   N/A
CAPE HENRY BUOY  0130      61                N/A     3/13   2/13
CAPE CHARLES BUO 0151      59                N/A     2/13   2/13
64NM E OF VA BCH 0050   52 61  350/ 14/ 16 1020.9    4/ 7   3/ 7
44100 DUCK FRF   0115      62                N/A     4/13   2/13
44056 DUCK FRF   0130      59                N/A     3/13   2/13
DIAMOND SHLS NC  0150   54 64   10/ 10/ 14 1021.4F   4/12   3/12
CAPE LOOKOUT NC  0200   53      20/  4/  5 1021.4F
$$




USA.gov is the U.S. government's official web portal to all federal, state and local government web resources and services.